Regional Weather Roundup
Issued by NWS

Home | Current Version | Previous Version | Text Only | Print | Product List | Glossary On
Versions: 1 2 3 4 5 6 7 8 9 10 11 12 13 14 15 16 17 18 19 20 21 22 23 24 25 26 27 28 29 30 31 32 33 34 35 36 37 38 39 40 41 42 43 44 45 46 47 48 49 50
000
ASUS43 KMPX 302001
RWRMN
WEATHER ROUNDUP FOR MINNESOTA
NATIONAL WEATHER SERVICE TWIN CITIES/CHANHASSEN MN
300 PM CDT TUE JUN 30 2015


NOTE: "FAIR" INDICATES FEW OR NO CLOUDS BELOW 12,000 FEET WITH NO
SIGNIFICANT WEATHER AND/OR OBSTRUCTIONS TO VISIBILITY. N/A MEANS
CURRENT SKY AND/OR WEATHER CONDITIONS ARE NOT AVAILABLE.

MNZ060>063-068>070-302100-
   Twin Cities Metro

CITY           SKY/WX    TMP DP  RH WIND       PRES   REMARKS
TWIN CITIES    PTSUNNY   75  55  49 VRB3      29.92F
ST PAUL        MOSUNNY   75  55  49 E8        29.92F
CRYSTAL        SUNNY     75  56  51 NE6       29.91F
BLAINE         PTSUNNY   75  55  50 NW7       29.93F
LAKEVILLE      MOSUNNY   73  57  56 N8        29.92F
EDEN PRAIRIE   SUNNY     75  57  53 VRB3      29.91F
SOUTH ST PAUL  MOSUNNY   74  54  49 NE5       29.92S
LAKE ELMO      PTSUNNY   73  55  53 CALM      29.93F
$$
MNZ001>005-007-008-013>017-022>024-027-028-302100-
   Northwest Minnesota

CITY           SKY/WX    TMP DP  RH WIND       PRES   REMARKS
BEMIDJI        CLOUDY    71  53  51 NE5       29.96S
HALLOCK        MOSUNNY   75  59  57 CALM      29.92F
ROSEAU         MOSUNNY   73  61  64 E5        29.96S
WARROAD        PTSUNNY   68  57  68 NE9       29.97F
THIEF RVR FALL CLOUDY    73  55  53 CALM      29.95S
CROOKSTON      CLOUDY    73  57  56 E3        29.94S
FOSSTON        CLOUDY    73  63  68 CALM      29.95F
DETROIT LAKES  CLOUDY    73  55  53 NE5       29.95F
MOORHEAD       CLOUDY    73  57  56 E3        29.93S
PARK RAPIDS    CLOUDY    75  52  44 N6        29.95F
MAHNOMEN       FAIR      73  52  47 E3        29.94F
$$
MNZ006-009>011-018-025>026-302100-
   North Central Minnesota

CITY           SKY/WX    TMP DP  RH WIND       PRES   REMARKS
BAUDETTE       PTSUNNY   71  50  47 VRB3      29.96F
FLAG ISLAND    SUNNY     66  54  63 S1        29.97S
INTL FALLS     MOSUNNY   70  48  45 MISG      29.97F
WASKISH        PTSUNNY   73  55  53 W6        29.95F
BIG FORK       MOSUNNY   70  52  52 CALM      29.97S
LONGVILLE      CLOUDY    72  55  56 NW3       29.95F
GRAND RAPIDS   MOSUNNY   70  48  46 W3        29.97S
CRANE LAKE     SUNNY     66  48  52 NW3       29.99S
ORR            SUNNY     70  46  43 NE1       29.94F
COOK           MOSUNNY   68  48  49 CALM      29.97F
WALKER         FAIR      70  56  60 E3        29.95F
$$
MNZ012-019>021-037-302100-
   Northeast Minnesota

CITY           SKY/WX    TMP DP  RH WIND       PRES   REMARKS
DULUTH         PTSUNNY   63  48  58 SE10      29.98F
ELY            MOSUNNY   66  36  32 NE3       29.97F
HIBBING        MOSUNNY   69  46  43 E3        29.96F
EVELETH        MOSUNNY   68  48  49 NE3       29.97F
DULUTH HARBOR  PTSUNNY   61  50  67 NE9       29.99F
TWO HARBORS    MOSUNNY   63  50  63 SE8       29.98S
SILVER BAY     MOSUNNY   61  48  63 E6        29.98F
GRAND MARAIS     N/A     53  45  74 W7        30.00S
G MARAIS ARPRT SUNNY     55  41  58 S7        30.00S
$$
MNZ029>031-032-039>041-046>048-054>057-064-302100-
   West Central Minnesota

CITY           SKY/WX    TMP DP  RH WIND       PRES   REMARKS
FERGUS FALLS   PTSUNNY   73  55  53 E6        29.92F
WHEATON        PTSUNNY   68  59  73 SE3       29.95F
MORRIS         PTSUNNY   73  57  56 SE5       29.93F
ALEXANDRIA     MOSUNNY   75  56  51 E7        29.95F
ELBOW LAKE     FAIR      74  57  55 E3        29.93F
WADENA         PTSUNNY   73  55  53 E5        29.94F
GLENWOOD       MOSUNNY   75  57  53 SE6       29.95S
APPLETON       CLOUDY    73  59  60 CALM      29.93F
BENSON         PTSUNNY   73  55  53 CALM      29.94S
ORTONVILLE     CLOUDY    70  61  73 CALM      29.94S
MADISON        CLOUDY    70  61  73 CALM      29.94S
WILLMAR        FAIR      75  57  53 NE6       29.94F
$$
MNZ033>034-036-042>043-049>051-058-059-302100-
   Central Minnesota

CITY           SKY/WX    TMP DP  RH WIND       PRES   REMARKS
ST CLOUD       PTSUNNY   76  56  49 CALM      29.93F
SAUK CENTRE    FAIR      75  57  53 CALM      29.94F
PAYNESVILLE    MOSUNNY   74  55  52 NE5       29.94S
AITKIN         PTSUNNY   73  54  49 CALM      29.94F
PINE RIVER       N/A     73  55  53 CALM      29.98S
BRAINERD       PTSUNNY   74  54  49 VRB5      29.95F
STAPLES        PTSUNNY   73  52  46 S3        29.95S
LONG PRAIRIE   FAIR      72  55  56 CALM      29.95S
LITTLE FALLS   PTSUNNY   75  54  46 CALM      29.94F
LITCHFIELD     MOSUNNY   79  55  44 NE5       29.94S
BUFFALO        MOSUNNY   75  55  48 NE9       29.94F
MAPLE LAKE     MOSUNNY   76  59  56 NE5       29.94F
$$
MNZ037-044-045-052-053-302100-
   East Central Minnesota

CITY           SKY/WX    TMP DP  RH WIND       PRES   REMARKS
PRINCETON      MOSUNNY   75  57  53 CALM      29.94F
MORA           PTSUNNY   70  54  56 CALM      29.96S
CAMBRIDGE      MOSUNNY   75  57  53 CALM      29.92F
RUSH CITY      MOSUNNY   70  57  63 NE3       29.95S
MOOSE LAKE     MOSUNNY   68  59  73 E3        29.95F
HINCKLEY       MOCLDY    70  55  60 N6        29.96S
CLOQUET        MOSUNNY   64  50  59 E7        29.97F
MCGREGOR       MOSUNNY   70  54  56 CALM      29.95F
$$
MNZ071>073-080-081-089-090-097-098-302100-
   Southwest Minnesota

CITY           SKY/WX    TMP DP  RH WIND       PRES   REMARKS
MONTEVIDEO     CLOUDY    73  59  60 CALM      29.94F
GRANITE FALLS  CLOUDY    72  59  64 CALM      29.94F
CANBY          CLOUDY    70  63  78 E3        29.95S
MARSHALL       CLOUDY    70  61  73 CALM        N/A
REDWOOD FALLS  CLOUDY    75  57  53 CALM      29.93S
OLIVIA         CLOUDY    72  55  56 CALM      29.93S
PIPESTONE      CLOUDY    75  63  64 E6        29.94S
WINDOM         CLOUDY    72  61  68 CALM      29.95S
WORTHINGTON    CLOUDY    73  63  68 E6        29.94S
JACKSON        CLOUDY    72  63  73 NE6       29.95S
TRACY          CLOUDY    72  63  73 E3        29.95F
SLAYTON        CLOUDY    73  62  70 CALM      29.95F
$$
MNZ065>067-074>077-082>085-091>093-302100-
   South Central Minnesota

CITY           SKY/WX    TMP DP  RH WIND       PRES   REMARKS
MANKATO        PTSUNNY   73  57  56 NE5       29.92S
NEW ULM        CLOUDY    73  55  53 NE5       29.92S
ST JAMES       CLOUDY    73  61  64 NE5       29.94R
FAIRMONT       CLOUDY    73  57  56 N5        29.93R
GLENCOE        MOSUNNY   77  62  59 NE6       29.92S
FARIBAULT      SUNNY     73  61  64 N9        29.93S
OWATONNA       MOSUNNY   73  59  60 NE6       29.93S
WASECA         PTSUNNY   73  59  60 NE6       29.93F
ALBERT LEA     PTSUNNY   77  57  50 NE9       29.91F
$$
MNZ078>079-086>088-094>096-302100-
   Southeast Minnesota

CITY           SKY/WX    TMP DP  RH WIND       PRES   REMARKS
ROCHESTER      MOSUNNY   73  61  65 N9        29.93F
RED WING       MOSUNNY   75  54  46 N7        29.90F
STANTON        MOSUNNY   73  59  60 NE8       29.91F
DODGE CENTER   MOSUNNY   72  61  68 NE8       29.93S
WINONA         SUNNY     73  59  60 N9        29.90F
AUSTIN         MOSUNNY   73  63  68 NE9       29.91S
PRESTON        PTSUNNY   69  60  73 NE8       29.93S
$$
ABBREVIATIONS USED IN REMARKS
   TC - TEMPERATURES IN CELSIUS
  WCI - WIND CHILL INDEX
   HX - HEAT INDEX
  VSB - VISIBILITY
$$



USA.gov is the U.S. government's official web portal to all federal, state and local government web resources and services.